Location: Unspecified
(58.9933°N, 5.6375°E)
Time: 04:56:48
(UTC+01:00)

Okean 3 - Visible Passes

Search period start: 31 January 2015 00:00
Search period end: 10 February 2015 00:00
Orbit: 582 x 606 km, 82.5° (Epoch: 29 January)

Date Brightness Start Highest point End Pass type
(mag) Time Alt. Az. Time Alt. Az. Time Alt. Az.
31 Jan 6.6 07:06:08 10° ESE 07:08:19 14° E 07:10:38 10° NE visible
31 Jan 3.6 18:36:36 10° N 18:40:53 52° ENE 18:45:07 10° SSE visible
31 Jan 5.6 20:14:20 10° NNW 20:18:03 27° W 20:21:41 10° SW visible
01 Feb 6.5 07:14:47 10° SE 07:17:45 19° E 07:20:50 10° NE visible
01 Feb 3.4 18:46:13 10° N 18:50:35 71° ENE 18:54:53 10° SSE visible
01 Feb 6.1 20:24:16 10° NW 20:27:32 21° W 20:30:42 10° SW visible
02 Feb 6.1 07:23:44 10° SE 07:27:14 25° E 07:30:49 10° NNE visible
02 Feb 3.5 18:55:52 10° NNW 19:00:14 84° WSW 19:04:33 10° S visible
02 Feb 6.5 20:34:22 10° NW 20:37:00 15° W 20:39:29 10° WSW visible
03 Feb 5.5 07:32:52 10° SSE 07:36:44 33° E 07:40:40 10° NNE visible
03 Feb 4.0 19:05:33 10° NNW 19:09:51 61° W 19:14:05 10° S visible
03 Feb 6.9 20:44:54 10° WNW 20:46:24 11° WNW 20:47:43 10° W visible
04 Feb 4.9 07:42:09 10° SSE 07:46:17 45° E 07:50:27 10° NNE visible
04 Feb 4.7 19:15:16 10° NNW 19:19:25 44° W 19:23:30 10° SSW visible
05 Feb 6.9 06:17:53 10° E 06:19:17 12° ENE 06:20:52 10° ENE visible
05 Feb 4.2 07:51:34 10° S 07:55:51 62° E 08:00:10 10° NNE visible
05 Feb 3.9 17:47:29 10° N 17:51:38 43° ENE 17:55:46 10° SE visible
05 Feb 5.4 19:25:03 10° NNW 19:28:57 33° W 19:32:47 10° SSW visible
06 Feb 6.7 06:26:10 10° ESE 06:28:42 16° E 06:31:21 10° NE visible
06 Feb 3.5 17:57:03 10° N 18:01:21 59° ENE 18:05:37 10° SSE visible
06 Feb 6.0 19:34:54 10° NNW 19:38:27 24° W 19:41:54 10° SW visible
07 Feb 6.4 06:34:56 10° SE 06:38:08 21° E 06:41:25 10° NE visible
07 Feb 3.5 18:06:40 10° NNW 18:11:01 80° ENE 18:15:19 10° SSE visible
07 Feb 6.5 19:44:53 10° NW 19:47:54 18° W 19:50:48 10° SW visible
08 Feb 5.9 06:43:57 10° SE 06:47:36 28° E 06:51:20 10° NNE visible
08 Feb 3.8 18:16:18 10° NNW 18:20:38 75° W 18:24:54 10° S visible
08 Feb 6.9 19:55:04 10° NW 19:57:19 14° W 19:59:24 10° WSW visible
09 Feb 5.3 06:53:07 10° SSE 06:57:06 37° E 07:01:08 10° NNE visible
09 Feb 4.4 18:25:59 10° NNW 18:30:13 54° W 18:34:23 10° S visible
